Location: Corte Bragagnani
(45.3000°N, 11.1000°E)
Time: 02:43:45
(UTC+00:00)

COSMOS 2455 - Pass Details

Date: 09 April 2020
Orbit: 899 x 910 km, 67.1° (Epoch: 06 June)

Event Time Altitude Azimuth Distance (km) Brightness Sun altitude
Rises 18:16:20 0° 331° (NNW) 3,544 6.7 -4.6°
Reaches altitude 10° 18:19:03 10° 339° (NNW) 2,601 5.8 -5.0°
Maximum altitude 18:24:39 38° 47° (NE) 1,352 3.6 -6.0°
Drops below altitude 10° 18:30:14 10° 115° (ESE) 2,593 4.6 -6.9°
Enters shadow 18:30:45 - 117° (ESE) 2,768 4.7 -7.0°
